Reflectivity
16 11 4 -20 -20 -20 -8 11 7 7 -20 -20 -20 -20 -20 -20 -20 -20 -20 -20 -20 -20 -20 -20 -20 -20 -20 -20 -20 -20 -20 -20 -20 -20 -20 -20 13 36
7 12 8 -5 -20 -20 -20 -8 15 -2 -4 -20 -20 -20 -20 -20 -20 -20 -20 -20 -20 -20 -20 -20 -20 -20 -20 -20 -20 -20 -20 -20 -20 -20 -20 -8 -10 19
-17 -20 -20 -20 -20 -20 -20 -20 -2 0 -1 -20 -20 -20 -20 -20 -20 -20 -20 -20 -20 -20 -20 -20 -20 -20 -20 -20 -20 -20 -20 -20 -20 -20 -20 -19 -20 12
-20 -20 -20 -20 -20 -20 -20 -20 -20 -11 6 -20 -20 -20 -20 -20 -20 -20 -20 -20 -20 -20 -20 -20 -20 -20 -20 -20 -20 -20 -20 -20 -20 -20 -20 -20 -20 9
-20 -20 -20 -20 -19 -20 -20 -20 -1 -9 -1 7 -19 -19 -20 -20 -20 -20 -20 -20 -20 -20 -20 -20 -20 -20 -20 -20 -20 -20 -20 -20 -20 -20 -17 -10 24 -16
-20 -20 -20 -20 -20 -20 -19 -6 -10 -11 -2 9 14 -2 -11 -20 -20 -20 -20 -12 -20 -20 -20 -20 -20 -20 -20 -20 -20 -20 -6 -0 -12 -20 -5 -18 34 34
-20 -20 -20 -20 -20 -15 -3 5 10 10 8 7 -4 -4 8 -20 -12 -16 -3 -19 -20 -20 -20 -20 -20 -18 -16 -13 7 27 32 33 27 6 13 27 39 32
-20 -20 -20 -20 -20 6 -18 -20 -20 -3 -20 3 0 12 15 11 1 12 7 -3 -13 -20 5 -20 -20 -20 -20 6 23 17 34 33 43 33 39 30 31 32
-20 -20 -20 -20 -11 -19 -10 -19 -13 -20 -13 0 -10 4 4 3 17 13 4 -10 -20 -20 -20 -20 -20 -17 -20 -19 10 26 27 37 29 18 27 32 33 35
-20 -20 -20 -20 -20 -8 -15 -20 -20 -20 -20 -19 -9 -8 -8 -2 11 4 -14 -15 -20 -20 -20 -20 -20 -20 -20 -20 -17 -2 26 27 29 27 28 31 22 16
-20 -20 -20 -20 -20 -2 -6 -20 -20 -20 -20 -19 -20 -18 9 2 -7 -14 -20 -20 -20 -17 -20 -20 -20 -20 -20 -20 -15 -20 -4 -19 22 -2 25 22 18 16
-20 -20 -20 -20 -20 -6 -20 -20 -20 -20 -20 -20 -20 -20 -20 -20 6 11 2 -9 -1 -10 -17 -20 -20 -20 -20 -20 -20 -20 -20 -10 -17 -11 5 -12 9 -0
-20 -20 -20 -20 -20 -20 -20 -20 -20 -20 -20 -20 -20 -20 -20 -20 -20 -20 -12 -18 -14 -3 7 6 0 -14 -19 2 -1 -16 -13 -14 -20 -6 -9 -14 1 3
-20 -20 -20 -20 -20 -20 -20 -20 -20 -20 -20 -20 -20 -20 -20 -20 -20 -20 -20 -14 -5 -8 -5 13 -3 0 2 4 -9 -13 -3 -4 -20 -20 -20 9 7 14
-20 -20 -20 -20 -20 -20 -20 -20 -20 -20 -20 -20 -20 -20 -20 -20 -20 -20 -15 -19 -20 -19 -4 -19 -19 -20 -12 -13 -10 -8 10 -19 -6 -15 -20 -19 -8 1
-20 -20 -20 -20 -20 -20 -20 -20 -20 -20 -20 -20 -20 -20 -20 -20 -20 -20 -20 -20 -20 -20 -20 -20 -20 -19 -20 -20 -20 -17 -16 -3 -16 -20 -20 -20 -20 -17
-20 -20 -20 -20 -20 -20 -20 -20 -20 -20 -20 -20 -20 -20 -20 -20 -20 -20 -20 -20 -20 -20 -20 -20 -20 -20 -20 -20 -20 -20 -20 -20 -20 -20 -20 -20 -20 -20
-20 -20 -20 -20 -20 -20 -20 -20 -20 -20 -20 -20 -20 -20 -20 -20 -20 -20 -20 -20 -16 -20 -20 -20 -20 -20 -20 -20 -20 -20 -20 -20 -20 -20 -20 -20 -20 -20
-20 -20 -20 -20 -20 -20 -20 -20 -20 -20 -20 -20 -20 -20 -20 -20 -19 -20 -20 -20 -20 -20 -20 -20 -20 -12 -14 -20 -20 -10 -20 -20 -20 -20 -20 -20 -20 -20
-20 -20 -20 3 -20 -20 -20 -20 -20 -20 -20 -20 -20 -20 -20 -20 -20 -20 -20 -20 -20 -20 -18 -2 -0 1 2 -19 -20 -20 -20 -20 -20 -20 -20 -20 -20 -20
-20 -20 -20 10 -16 1 -20 -20 -20 -20 -20 -20 -20 -20 -20 -20 -20 -20 -20 -2 -1 -20 -20 -20 -4 3 -1 -18 -16 -20 -7 -9 -20 -13 -20 -20 -20 -20
-3 -20 -9 10 4 7 -20 -20 -20 -20 -20 -20 -20 -20 -20 -20 -20 -20 -20 -20 -20 -20 -20 -20 -20 -20 -16 -9 -20 -19 -20 -20 -20 -20 -20 -20 -20 -20
23 -1 18 -6 17 16 -19 -20 -20 -20 -20 -20 -20 -20 -20 -20 -20 -20 -20 -20 -20 -20 -20 -20 -20 -20 -20 -20 -19 -20 -20 -20 -20 -20 -20 -20 -12 -17
Wind_Speed
6 6 4 4 4 4 5 5 5 9 9 4 3 4 4 4 7 8 8 13 18 19 20 19 18 18 20 21 19 19 18 15 14 17 21 23 26 39
5 4 5 3 4 4 4 3 3 6 10 5 4 4 3 5 8 8 9 13 15 18 19 20 19 20 20 20 20 18 16 15 14 15 20 25 25 21
6 8 7 7 5 4 4 4 5 6 10 9 6 4 4 8 8 5 7 8 9 17 20 22 22 21 21 21 22 22 22 20 20 22 20 25 29 36
5 4 5 6 7 7 5 7 7 7 8 13 10 9 9 9 10 10 8 8 8 15 20 21 23 23 22 22 23 21 21 20 21 22 22 25 31 31
4 5 6 5 6 6 7 7 7 7 8 9 9 7 7 6 7 7 8 8 5 12 19 21 21 20 19 19 20 20 19 21 20 23 21 18 19 18
5 5 6 7 8 7 8 9 8 8 8 8 8 8 7 6 4 7 7 4 7 9 12 12 16 15 16 15 17 17 20 21 23 23 22 19 18 16
5 6 7 9 13 11 6 6 7 7 7 8 8 8 7 5 6 4 6 7 8 8 4 5 7 7 7 10 12 16 18 20 19 20 17 19 18 15
6 6 7 11 10 9 13 14 10 8 9 8 8 9 10 9 8 2 3 6 7 1 4 9 6 7 5 5 17 18 18 18 19 8 8 9 10 11
5 6 7 7 8 7 9 14 13 14 13 9 9 9 10 5 4 6 6 5 6 8 5 8 3 4 2 5 15 17 18 12 10 6 3 3 5 6
7 7 7 8 5 7 8 8 9 7 8 6 8 6 4 4 4 5 7 7 8 7 2 4 1 3 1 2 13 17 17 18 19 19 14 6 7 7
7 6 7 8 9 12 7 8 9 7 8 13 14 14 13 8 5 4 4 3 4 2 2 2 2 3 2 2 4 11 16 18 18 18 19 18 14 13
6 7 13 11 14 13 8 6 7 7 7 9 5 7 6 4 5 2 4 3 3 4 2 3 3 3 4 1 1 4 4 10 12 16 16 17 16 4
7 6 5 12 14 14 13 5 7 6 7 4 5 4 4 3 2 2 4 4 2 4 3 2 2 3 3 3 2 3 3 4 3 5 11 13 12 9
8 5 5 12 13 14 12 13 14 12 1 3 4 3 3 3 3 3 4 4 4 6 5 2 2 1 2 3 3 3 3 3 3 3 3 5 7 8
7 10 14 14 15 12 12 15 14 2 3 2 3 3 3 3 4 3 4 5 5 4 4 2 2 2 2 3 3 2 3 3 2 1 1 1 1 2
13 10 10 11 13 11 10 7 3 4 4 4 3 2 2 2 2 2 2 3 3 2 4 4 4 2 1 3 2 2 1 2 2 2 2 2 1 0
7 3 3 4 5 4 4 4 4 4 3 2 2 2 2 2 3 1 2 2 2 2 2 2 4 5 4 4 2 2 2 2 2 2 4 3 3 2
6 6 7 7 7 5 5 5 4 6 4 3 3 3 2 2 2 2 2 2 3 3 2 2 2 3 2 1 6 3 1 0 1 2 2 3 3 3
7 8 7 7 7 6 6 5 5 4 4 3 3 3 2 2 4 2 2 3 3 3 3 2 1 1 1 2 2 9 1 1 1 2 1 2 3 5
9 9 9 8 7 7 6 5 4 3 4 4 3 3 2 2 1 2 2 2 3 3 2 1 1 2 2 2 1 2 7 2 2 2 1 2 4 10
9 10 8 8 7 6 6 5 5 5 4 3 3 3 3 2 2 3 3 7 5 0 2 2 2 7 1 1 1 2 2 7 5 3 2 2 3 4
9 10 9 8 8 7 6 5 5 5 4 4 4 3 2 2 3 3 2 2 2 2 3 3 3 1 2 3 3 3 2 2 3 6 8 8 5 1
9 9 8 8 8 7 6 6 6 5 4 4 4 3 3 2 3 2 2 3 2 3 2 2 2 1 2 2 3 1 2 2 2 2 3 3 4 11
Wind_Direction
287 287 279 276 289 282 264 250 261 295 297 288 275 270 287 300 290 291 286 287 292 294 293 288 279 273 269 263 260 264 264 264 274 288 276 266 253 240
287 281 285 277 287 286 286 287 256 271 284 298 272 256 268 290 296 285 281 279 277 277 282 280 276 274 273 263 257 246 242 260 270 279 278 269 259 230
290 309 318 318 304 305 296 289 284 281 285 292 298 280 286 299 299 275 291 296 297 291 288 288 287 282 276 268 258 255 259 259 266 275 272 272 259 237
276 295 294 315 315 305 303 299 293 286 283 291 294 296 296 298 298 305 307 299 291 288 289 286 282 277 273 266 259 256 257 257 260 268 265 271 253 241
291 287 284 281 291 292 289 281 280 280 275 278 283 290 291 286 291 304 298 285 281 293 295 288 283 280 271 265 260 261 263 260 266 267 253 238 193 202
279 272 271 275 271 280 290 283 282 282 282 273 282 283 276 275 264 285 295 292 305 304 294 280 282 284 284 277 273 267 264 267 265 264 243 219 210 211
259 262 267 264 264 289 306 313 309 292 283 276 272 271 271 284 278 268 281 305 299 284 298 305 321 307 293 296 291 283 275 271 268 253 233 211 199 188
275 279 280 283 276 289 301 304 303 302 294 289 294 289 290 290 285 267 288 301 304 178 327 309 299 304 326 358 340 324 289 301 293 245 208 183 179 182
256 271 278 276 293 284 288 296 300 301 297 305 294 287 285 324 328 296 284 285 275 290 320 288 280 272 351 353 359 7 9 353 352 20 93 127 149 158
241 252 259 270 267 276 280 293 298 299 298 317 314 303 300 315 303 299 296 285 275 273 284 263 325 271 311 8 17 15 23 30 33 31 36 83 138 148
239 241 255 259 257 272 276 291 294 290 297 305 309 309 307 300 293 309 277 303 284 261 29 307 307 293 311 346 346 12 22 26 31 40 37 29 43 67
238 236 256 261 264 262 264 259 270 276 290 301 309 306 306 300 311 300 288 259 287 273 30 319 327 332 310 19 8 346 347 18 22 34 41 37 28 26
240 237 226 256 269 267 266 237 243 264 278 306 295 294 294 292 275 289 279 274 240 250 358 9 312 320 284 303 343 7 356 349 17 22 30 31 28 37
245 239 234 251 261 264 266 268 274 280 290 281 285 279 277 272 277 274 274 275 260 259 299 304 271 302 309 299 298 343 15 13 8 20 27 19 28 31
231 230 243 251 257 265 277 278 274 195 216 241 244 260 245 256 281 268 268 269 266 249 261 251 275 283 273 283 302 323 342 352 12 57 16 37 19 6
241 240 236 240 244 255 270 267 240 210 207 230 230 216 256 262 275 261 281 302 286 270 242 222 247 257 285 268 285 290 286 292 329 333 329 328 344 319
225 203 215 232 245 247 253 237 235 233 227 207 233 248 257 249 274 262 262 282 266 290 296 314 251 246 221 214 283 278 287 307 307 337 7 333 318 325
238 219 224 224 229 232 239 239 220 237 220 206 220 234 233 262 271 278 267 262 280 286 278 267 285 319 332 222 226 260 271 252 328 326 338 321 302 316
221 223 228 221 226 222 221 217 223 210 192 199 217 213 221 215 292 295 265 262 264 260 263 252 285 262 290 278 296 213 201 198 307 300 237 251 252 286
230 232 234 227 220 217 216 211 212 197 198 202 209 211 213 207 244 262 264 256 270 264 266 273 240 227 209 225 252 272 244 232 199 243 263 310 267 291
229 233 232 222 220 216 210 199 201 200 190 189 201 205 199 185 240 246 259 289 294 312 274 268 241 290 232 168 244 269 261 221 218 234 179 265 297 322
227 226 220 220 214 213 206 190 193 201 191 188 194 194 210 192 231 250 256 256 270 248 248 258 275 278 218 213 240 236 269 289 316 299 233 206 163 219
233 226 219 212 204 206 196 186 189 192 181 174 177 196 190 197 225 230 234 250 240 266 251 289 296 325 232 217 254 224 259 285 308 317 321 11 245 246